Regional Weather Roundup
Issued by NWS

Home | Current Version | Previous Version | Graphics & Text | Print | Product List | Glossary On
Versions: 1 2 3 4 5 6 7 8 9 10 11 12 13 14 15 16 17 18 19 20 21 22 23 24 25 26 27 28 29 30 31 32 33 34 35 36 37 38 39 40 41 42 43 44 45 46 47 48 49 50
000
ASUS43 KDMX 220206
RWRIA

WEATHER ROUNDUP FOR IOWA
NATIONAL WEATHER SERVICE DES MOINES IA
800 PM CST TUE FEB 21 2017

NOTE: "FAIR" INDICATES FEW OR NO CLOUDS BELOW 12,000 FEET WITH NO
SIGNIFICANT WEATHER AND/OR OBSTRUCTIONS TO VISIBILITY.

* - THESE STATIONS ARE NOT NWS STATIONS...THUS NOT UNDER NWS
QUALITY CONTROL.  THEY ALSO DO NOT REPORT WEATHER SUCH
AS PRECIPITATION OR FOG.

IAZ001>003-012>014-020>022-031>034-043>046-220300-
   NORTHWEST IOWA

CITY           SKY/WX    TMP DP  RH WIND       PRES   REMARKS
CARROLL *      CLEAR     54  43  66 S17       29.77F
CHEROKEE *     PTCLDY    50  40  69 S8        29.74S
DENISON *      CLEAR     55  39  54 S15G22    29.75F
LE MARS *      CLEAR     52  37  58 S8        29.73S
ORANGE CITY *  CLEAR     50  39  66 SW7       29.72S
SHELDON *      CLEAR     50  43  76 SW7       29.70S
SIOUX CITY     CLEAR     58  37  45 SW9       29.73S
SPENCER        CLEAR     49  41  74 S12       29.72F
STORM LAKE *   CLEAR     48  41  76 S12       29.75F
$$

IAZ055>058-069>071-079>083-090>094-220300-
   SOUTHWEST IOWA

CITY           SKY/WX    TMP DP  RH WIND       PRES   REMARKS
ATLANTIC *     CLEAR     52  41  66 S10       29.82F
CLARINDA *     CLEAR     45  39  81 S3        29.87S
COUNCIL BLFS * CLEAR     57  37  47 S13       29.80F
CRESTON *      CLEAR     50  36  57 SW12      29.87R
HARLAN  *      CLEAR     52  41  66 S8        29.83F
LAMONI         CLEAR     53  33  46 S9        29.86F
RED OAK *      CLEAR     52  41  66 S5        29.83F
SHENANDOAH *   CLEAR     55  39  54 S8G14     29.84F
$$

IAZ047>049-059>061-072>074-084-220300-
   CENTRAL IOWA

CITY           SKY/WX    TMP DP  RH WIND       PRES   REMARKS
AMES           CLEAR     50  40  68 S8        29.80F
ANKENY *       CLEAR     55  34  44 SW6       29.83S
BOONE *        CLEAR     57  37  47 SW15G22   29.79F
CHARITON *     CLEAR     54  36  50 S8        29.85F
DES MOINES     CLEAR     55  33  43 S7        29.83S
GRINNELL*      PTCLDY    48  39  70 S8        29.84F
KNOXVILLE *    CLEAR     57  32  38 S7        29.83F
MARSHALLTOWN   CLEAR     51  39  63 SE7       29.80F
NEWTON *       CLEAR     50  37  62 S9        29.82F
PELLA *        CLEAR     54  35  48 S6        29.85F
PERRY *          N/A     48  39  72 S8        29.81F
$$

IAZ004>006-015-016-023>025-035-036-220300-
   NORTH CENTRAL IOWA

CITY           SKY/WX    TMP DP  RH WIND       PRES   REMARKS
ALGONA *       CLEAR     48  45  87 S14       29.75F
CLARION *      CLEAR     48  46  93 S12       29.77F
ESTHERVILLE    CLEAR     46  43  89 S9        29.71F
FORT DODGE *   CLEAR     52  39  62 S15       29.78S
MASON CITY     CLEAR     44  40  85 S8        29.78F
FOREST CITY *    N/A     45  39  81 S6        29.76F
WEBSTER CITY * CLEAR     50  41  71 S12       29.76F
IOWA FALLS *     N/A     46  39  78 S10       29.80F
$$

IAZ007>011-017>019-026>030-037>042-050>054-066-220300-
   NORTHEAST IOWA

CITY           SKY/WX    TMP DP  RH WIND       PRES   REMARKS
CEDAR RAPIDS   CLEAR     49  38  65 S6        29.83F
CHARLES CITY * CLEAR     48  43  81 S10       29.79F
CLINTON *      CLEAR     54  41  61 S6        29.88S
DECORAH *      CLEAR     50  43  76 SW6       29.80R
DUBUQUE        PTCLDY    45  39  79 S5        29.85F
MONTICELLO *   CLEAR     45  39  81 S6        29.84F
OELWEIN *      CLEAR     45  41  87 SE10      29.82F
WATERLOO       CLEAR     51  39  63 S12       29.80F
$$

IAZ064-065-067-068-078-220300-
   EAST CENTRAL IOWA

CITY           SKY/WX    TMP DP  RH WIND       PRES   REMARKS
DAVENPORT      CLEAR     48  42  80 S5        29.88S
IOWA CITY      CLEAR     48  40  73 SE6       29.87F
MUSCATINE *    CLEAR     50  41  71 CALM      29.88S
QUAD CITIES    CLEAR     50  43  77 CALM      29.87S
$$

IAZ062-063-075>077-085>089-095>099-220300-
   SOUTHEAST IOWA

CITY           SKY/WX    TMP DP  RH WIND       PRES   REMARKS
BURLINGTON     CLEAR     55  53  93 S7        29.88S
FAIRFIELD *    CLEAR     50  32  50 SE7       29.86F
KEOKUK *       CLEAR     59  55  88 S6        29.88F
OTTUMWA        CLEAR     50  30  46 S6        29.85F
WASHINGTON *   CLEAR     52  37  58 S8        29.87F HAZE
$$

ABBREVIATIONS USED IN REMARKS
   TC - TEMPERATURES IN CELSIUS
  WCI - WIND CHILL INDEX
   HX - HEAT INDEX
  VSB - VISIBILITY
$$




USA.gov is the U.S. government's official web portal to all federal, state and local government web resources and services.